[[{"header":{"parameterUnit":"m.s-1","parameterCategory":1,"la1":30.2991,"la2":30.254,"lo1":-89.0895,"lo2":-89.0444,"dy":0.0017,"dx":0.0017,"nx":28,"ny":28,"refTime":"2024-10-05T03:00:00:Z","depth":0,"parameterNumber":2,"parameterNumberName":"U-component_of_WINDS"},"data":[0,0,0,0,0,0,0,0,0,0,0,0,0,0,0,0,0,0,0,0,0,0,0,0,0,0,0,0,0,0,0,0,0,0,0,0,0,0,0,0,0,0,0,0,0,0,0,0,0,0,0,0,0,0,0,0,0,0,-4.3507,-4.3507,0,-4.3559,-4.356,-4.356,-4.3404,-4.3399,-4.3394,-4.3389,-4.3444,-4.345,-4.3456,0,0,0,0,0,0,0,0,0,0,0,0,0,-4.327,-4.3275,-4.3506,-4.3507,-4.3508,-4.3559,-4.356,-4.356,-4.3404,-4.3399,-4.3393,-4.3387,-4.3442,-4.3449,-4.3456,0,0,0,0,0,0,0,0,0,0,0,0,0,-4.3353,-4.3277,-4.3506,-4.3436,-4.343,-4.3559,-4.356,-4.3561,-4.3406,-4.3398,-4.3391,-4.3384,-4.344,-4.3449,-4.3457,-4.3656,0,0,-4.3485,-4.3488,0,0,0,0,0,0,0,0,-4.3348,-4.3362,-4.3446,-4.3441,-4.3435,-4.3467,-4.3496,-4.3593,-4.3407,-4.3415,-4.3389,-4.3381,-4.3458,-4.3465,-4.349,-4.3659,-4.3661,-4.3485,-4.3491,-4.3495,-4.3497,0,0,0,0,0,0,0,-4.3343,-4.3359,-4.3527,-4.3447,-4.3441,-4.3402,-4.3405,-4.3514,-4.3476,-4.3414,-4.3403,-4.3411,-4.3453,-4.3482,-4.3491,-4.3662,-4.3485,-4.3493,-4.3498,-4.3502,-4.3994,-4.4002,0,0,0,0,0,0,-4.3346,-4.3355,-4.3525,-4.3529,-4.3373,-4.3412,-4.3416,-4.3464,-4.3475,-4.3469,-4.3417,-4.3403,-4.3471,-4.348,-4.3492,-4.3723,-4.3494,-4.3503,-4.3508,-4.3987,-4.3996,-4.4004,0,0,0,0,0,0,-4.3342,-4.3363,-4.3523,-4.3439,-4.3456,-4.3424,-4.3479,-4.3469,-4.3498,-4.3477,-4.3469,-4.3453,-4.3465,-4.3479,-4.3616,-4.3723,-4.3507,-4.3515,-4.3977,-4.3989,-4.4,-4.419,0,0,0,0,0,0,-4.3336,-4.3362,-4.3438,-4.3442,-4.3461,-4.3648,-4.3486,-4.3475,-4.3513,-4.3496,-4.3509,-4.3504,-4.3461,-4.3604,-4.3625,-4.3732,-4.3522,-4.3968,-4.3983,-4.3996,-4.4174,-4.4207,-4.4235,0,0,0,0,0,-4.3328,-4.349,-4.3443,-4.3464,-4.3555,-4.3654,-4.3665,-4.3611,-4.3523,-4.3598,-4.3584,-4.3504,-4.3709,-4.3619,-4.3642,-4.3753,-4.3961,-4.3978,-4.3995,-4.416,-4.42,-4.4234,0,0,0,0,0,0,-4.35,-4.3489,-4.3436,-4.3605,-4.3632,-4.3627,-4.372,-4.3656,-4.3708,-4.369,-4.3621,-4.3626,-4.3774,-4.3777,-4.3678,-4.3945,-4.3819,-4.3842,-4.3937,-4.3975,-4.4005,-4.4,-4.3529,0,0,0,0,0,-4.3558,-4.3639,-4.3625,-4.3775,-4.3791,-4.3754,-4.3795,-4.3751,-4.3776,-4.3787,-4.3783,-4.3811,-4.388,-4.3928,-4.3992,-4.4174,-4.4174,-4.4262,-4.4292,-4.4317,-4.4337,-4.4432,-4.447,-4.4061,-4.4061,-4.4061,0,0,-4.3678,-4.3682,-4.3737,-4.381,-4.3825,-4.391,-4.3765,-4.3861,-4.3923,-4.3801,-4.3929,-4.3928,-4.3954,-4.4114,-4.4184,-4.4121,-4.445,-4.4339,-4.436,-4.4366,-4.4454,-4.4492,-4.4527,-4.4073,-4.4071,-4.4069,0,0,-4.3938,-4.3951,-4.4076,-4.4094,-4.4119,-4.4093,-4.4124,-4.4129,-4.4123,-4.4251,-4.4161,-4.4234,-4.4357,-4.4378,-4.4405,-4.4674,-4.4601,-4.4697,-4.4854,-4.4947,-4.498,-4.5008,-4.5101,-4.5136,-4.4717,-4.4717,-4.4718,0,-4.4084,-4.4208,-4.4148,-4.425,-4.4284,-4.4178,-4.4303,-4.4324,-4.4369,-4.4394,-4.4323,-4.4473,-4.4484,-4.4646,-4.4711,-4.4738,-4.4769,-4.4694,-4.498,-4.5007,-4.5033,-4.5121,-4.5157,-4.4729,-4.4727,-4.4726,-4.4725,0,-4.4385,-4.4473,-4.4571,-4.4616,-4.4661,-4.4775,-4.4731,-4.4784,-4.4736,-4.4718,-4.4849,-4.4857,-4.4919,-4.4955,-4.491,-4.5111,-4.5071,-4.4991,-4.4863,-4.5084,-4.5166,-4.52,-4.4745,-4.4741,-4.4737,-4.4735,0,0,-4.4755,-4.4765,-4.4802,-4.482,-4.484,-4.4906,-4.5015,-4.5075,-4.5121,-4.5156,-4.5244,-4.535,-4.5275,-4.5306,-4.5263,-4.5345,-4.5555,-4.5255,-4.5254,-4.5308,-4.5774,-4.5833,-4.5873,-4.5507,-4.5514,-4.5519,-4.5771,0,-4.501,-4.5195,-4.5144,-4.5328,-4.5408,-4.5308,-4.5402,-4.5424,-4.541,-4.5475,-4.5459,-4.5535,-4.5432,-4.545,-4.5527,-4.5513,-4.5647,-4.5494,-4.5587,-4.5591,-4.5582,-4.5916,-4.5978,-4.6216,-4.5803,-4.5809,-4.5813,0,-4.5332,-4.5378,-4.5571,-4.5576,-4.5607,-4.5693,-4.5743,-4.5807,-4.583,-4.5813,-4.5848,-4.5788,-4.5893,-4.5767,-4.5911,-4.5808,-4.5843,-4.5843,-4.585,-4.5855,-4.5714,-4.5928,-4.6291,-4.6326,-4.5863,-4.5859,-4.5855,0,-4.558,-4.569,-4.5819,-4.5838,-4.5848,-4.591,-4.5917,-4.5933,-4.5972,-4.6016,-4.6041,-4.6098,-4.6128,-4.6174,-4.613,-4.6042,-4.628,-4.615,-4.6268,-4.627,-4.6321,-4.6318,-4.6693,-4.6349,-4.6348,-4.6348,-4.6347,0,-4.5868,-4.599,-4.593,-4.6009,-4.6142,-4.6082,-4.6215,-4.621,-4.6225,-4.6301,-4.6219,-4.6292,-4.6231,-4.6298,-4.6265,-4.6388,-4.6404,-4.6393,-4.6382,-4.6399,-4.64,-4.6419,-4.6401,-4.6357,-4.6355,-4.6353,-4.6351,0,-4.6166,-4.6132,-4.6265,-4.6263,-4.6266,-4.6363,-4.6361,-4.6434,-4.6414,-4.6511,-4.653,-4.6499,-4.6575,-4.6536,-4.6614,-4.6592,-4.675,-4.6719,-4.6743,-4.6733,-4.6853,-4.6841,-4.7251,-4.7301,-4.6927,-4.6931,-4.6934,0,-4.6352,-4.6442,-4.645,-4.6495,-4.6507,-4.6581,-4.662,-4.6564,-4.6609,-4.6641,-4.671,-4.6778,-4.6829,-4.6954,-4.6938,-4.6997,-4.6964,-4.7104,-4.6973,-4.6986,-4.6964,-4.6958,-4.6966,-4.713,-4.7134,-4.7138,-4.7141,0,-4.6683,-4.6661,-4.6721,-4.6775,-4.6824,-4.6864,-4.6897,-4.6938,-4.6884,-4.6938,-4.7013,-4.7053,-4.7132,-4.72,-4.7251,-4.7258,-4.7191,-4.7183,-4.7213,-4.723,-4.7239,-4.7233,-4.6812,-4.7173,-4.717,-4.7167,-4.7166,-4.7164,-4.6929,-4.7004,-4.702,-4.7089,-4.7108,-4.7141,-4.7208,-4.7197,-4.7259,-4.7318,-4.7282,-4.7371,-4.739,-4.7451,-4.7467,-4.7534,-4.7479,-4.7523,-4.7534,-4.7545,-4.756,-4.723,-4.7544,-4.7543,-4.7542,-4.7541,-4.7541,0,-4.7254,-4.7259,-4.7324,-4.7372,-4.7426,-4.7358,-4.7391,-4.744,-4.7519,-4.7542,-4.7594,-4.7681,-4.7746,-4.7736,-4.7795,-4.7851,-4.7822,-4.7869,-4.7863,-4.7865,-4.7608,-4.7574,-4.7891,-4.7891,-4.7891,-4.7891,-4.7891,-4.7891,-4.7429,-4.7552,-4.7532,-4.7663,-4.7668,-4.7753,-4.7778,-4.7807,-4.7825,-4.7925,-4.7978,-4.7971,-4.7981,-4.804,-4.8097,-4.8092,-4.8117,-4.8175,-4.8159,-4.7918,-4.7883,-4.785,-4.7818,-4.8181,-4.8182,-4.8409,-4.8412,-4.8413]},{"header":{"parameterUnit":"m.s-1","parameterCategory":1,"la1":30.2991,"la2":30.254,"lo1":-89.0895,"lo2":-89.0444,"dy":0.0017,"dx":0.0017,"nx":28,"ny":28,"refTime":"2024-10-05T03:00:00:Z","depth":0,"parameterNumber":3,"parameterNumberName":"V-component_of_WINDS"},"data":[0,0,0,0,0,0,0,0,0,0,0,0,0,0,0,0,0,0,0,0,0,0,0,0,0,0,0,0,0,0,0,0,0,0,0,0,0,0,0,0,0,0,0,0,0,0,0,0,0,0,0,0,0,0,0,0,0,0,-0.5193,-0.5193,0,-0.5191,-0.5191,-0.5191,-0.5212,-0.5212,-0.5213,-0.5214,-0.5211,-0.5211,-0.521,0,0,0,0,0,0,0,0,0,0,0,0,0,-0.5214,-0.5214,-0.5193,-0.5193,-0.5193,-0.5191,-0.5191,-0.5191,-0.5212,-0.5212,-0.5213,-0.5214,-0.5212,-0.5211,-0.521,0,0,0,0,0,0,0,0,0,0,0,0,0,-0.5208,-0.5213,-0.5193,-0.5203,-0.5204,-0.5191,-0.5191,-0.5191,-0.5212,-0.5212,-0.5213,-0.5214,-0.5212,-0.5211,-0.521,-0.5187,0,0,-0.5207,-0.5207,0,0,0,0,0,0,0,0,-0.5208,-0.5207,-0.5202,-0.5202,-0.5203,-0.5202,-0.5197,-0.519,-0.5211,-0.5209,-0.5214,-0.5215,-0.5208,-0.5207,-0.5205,-0.5187,-0.5187,-0.5207,-0.5207,-0.5206,-0.5206,0,0,0,0,0,0,0,-0.5208,-0.5207,-0.5192,-0.5202,-0.5203,-0.5207,-0.5207,-0.5196,-0.5203,-0.5209,-0.5211,-0.521,-0.5208,-0.5206,-0.5205,-0.5187,-0.5207,-0.5207,-0.5206,-0.5206,-0.5147,-0.5146,0,0,0,0,0,0,-0.5208,-0.5207,-0.5192,-0.5192,-0.5208,-0.5206,-0.5206,-0.5202,-0.5204,-0.5205,-0.5209,-0.5211,-0.5207,-0.5206,-0.5205,-0.5177,-0.5206,-0.5206,-0.5205,-0.5148,-0.5147,-0.5146,0,0,0,0,0,0,-0.5208,-0.5206,-0.5192,-0.52,-0.5199,-0.5205,-0.52,-0.5201,-0.5199,-0.5204,-0.5205,-0.5205,-0.5208,-0.5206,-0.5191,-0.5177,-0.5205,-0.5204,-0.5149,-0.5148,-0.5147,-0.512,0,0,0,0,0,0,-0.5209,-0.5206,-0.5198,-0.52,-0.5198,-0.5179,-0.5199,-0.5201,-0.5197,-0.5199,-0.52,-0.5201,-0.5208,-0.5192,-0.519,-0.5176,-0.5204,-0.5151,-0.5149,-0.5147,-0.5122,-0.5118,-0.5114,0,0,0,0,0,-0.5209,-0.5191,-0.5197,-0.5196,-0.5188,-0.5178,-0.5177,-0.5185,-0.5196,-0.5187,-0.519,-0.5201,-0.5179,-0.519,-0.5188,-0.5174,-0.5152,-0.5149,-0.5147,-0.5124,-0.5119,-0.5114,0,0,0,0,0,0,-0.5189,-0.5192,-0.5199,-0.5181,-0.5179,-0.5181,-0.5171,-0.5179,-0.5174,-0.5177,-0.5187,-0.5187,-0.5169,-0.517,-0.5183,-0.515,-0.5167,-0.5164,-0.515,-0.5145,-0.5141,-0.5141,-0.5203,0,0,0,0,0,-0.5182,-0.5173,-0.5177,-0.5161,-0.5159,-0.5165,-0.5161,-0.5167,-0.5165,-0.5164,-0.5166,-0.5164,-0.5156,-0.5151,-0.5144,-0.5123,-0.5122,-0.5111,-0.5107,-0.5104,-0.5101,-0.5088,-0.5083,-0.5138,-0.5138,-0.5139,0,0,-0.5168,-0.5169,-0.5163,-0.5156,-0.5155,-0.5145,-0.5164,-0.5154,-0.5146,-0.5163,-0.5148,-0.5149,-0.5147,-0.5128,-0.5119,-0.5128,-0.5086,-0.5101,-0.5098,-0.5098,-0.5085,-0.508,-0.5075,-0.5137,-0.5137,-0.5137,0,0,-0.5138,-0.5138,-0.5124,-0.5122,-0.512,-0.5123,-0.512,-0.512,-0.5121,-0.5106,-0.5118,-0.5109,-0.5096,-0.5093,-0.509,-0.5056,-0.5065,-0.5053,-0.5032,-0.5019,-0.5014,-0.5011,-0.4997,-0.4992,-0.5051,-0.5051,-0.5051,0,-0.5121,-0.5107,-0.5115,-0.5103,-0.5099,-0.5113,-0.5097,-0.5095,-0.5091,-0.5088,-0.5097,-0.5079,-0.5079,-0.5058,-0.505,-0.5047,-0.5042,-0.5053,-0.5014,-0.5011,-0.5007,-0.4994,-0.4989,-0.5049,-0.5049,-0.5049,-0.505,0,-0.5085,-0.5075,-0.5064,-0.5058,-0.5053,-0.5039,-0.5045,-0.5038,-0.5044,-0.5046,-0.503,-0.5029,-0.5022,-0.5017,-0.5024,-0.4997,-0.5002,-0.5013,-0.503,-0.5,-0.4988,-0.4983,-0.5047,-0.5048,-0.5048,-0.5048,0,0,-0.5044,-0.5041,-0.5037,-0.5033,-0.5031,-0.5023,-0.5009,-0.5001,-0.4994,-0.499,-0.4978,-0.4965,-0.4974,-0.4971,-0.4977,-0.4965,-0.4935,-0.4977,-0.4977,-0.4968,-0.4904,-0.4895,-0.4889,-0.4942,-0.4941,-0.494,-0.4903,0,-0.5013,-0.4989,-0.4995,-0.4971,-0.496,-0.4972,-0.496,-0.4956,-0.4958,-0.4948,-0.495,-0.494,-0.4954,-0.4951,-0.494,-0.4941,-0.4923,-0.4944,-0.493,-0.4929,-0.4929,-0.4883,-0.4874,-0.484,-0.4899,-0.4898,-0.4898,0,-0.4974,-0.4967,-0.4942,-0.4939,-0.4935,-0.4924,-0.4915,-0.4907,-0.4902,-0.4904,-0.4899,-0.4906,-0.4891,-0.4908,-0.4887,-0.4901,-0.4895,-0.4895,-0.4894,-0.4892,-0.4911,-0.4879,-0.4829,-0.4824,-0.489,-0.4891,-0.4892,0,-0.4944,-0.4929,-0.4911,-0.4908,-0.4905,-0.4896,-0.4894,-0.489,-0.4884,-0.4877,-0.4873,-0.4864,-0.4859,-0.4852,-0.4856,-0.4868,-0.4833,-0.4851,-0.4833,-0.4833,-0.4826,-0.4826,-0.4773,-0.4823,-0.4823,-0.4823,-0.4823,0,-0.4909,-0.4893,-0.4897,-0.4886,-0.4868,-0.4874,-0.4855,-0.4855,-0.4851,-0.4839,-0.4849,-0.4838,-0.4845,-0.4834,-0.4837,-0.4818,-0.4816,-0.4816,-0.4817,-0.4815,-0.4815,-0.4811,-0.4813,-0.4822,-0.4822,-0.4822,-0.4823,0,-0.4873,-0.4875,-0.4856,-0.4854,-0.4852,-0.4839,-0.4836,-0.4825,-0.4826,-0.4811,-0.4808,-0.481,-0.4797,-0.4801,-0.4788,-0.479,-0.4765,-0.477,-0.4766,-0.4767,-0.4748,-0.475,-0.469,-0.4682,-0.4739,-0.4738,-0.4738,0,-0.485,-0.4837,-0.4832,-0.4825,-0.4822,-0.481,-0.4803,-0.4808,-0.4801,-0.4794,-0.4783,-0.4771,-0.4762,-0.4741,-0.4741,-0.473,-0.4734,-0.4714,-0.4732,-0.473,-0.4732,-0.4732,-0.473,-0.471,-0.4709,-0.4709,-0.4708,0,-0.4808,-0.4809,-0.4799,-0.4788,-0.478,-0.4772,-0.4765,-0.4759,-0.4763,-0.4754,-0.4741,-0.4733,-0.4718,-0.4706,-0.4696,-0.4693,-0.4701,-0.4702,-0.4697,-0.4695,-0.4693,-0.4692,-0.4755,-0.4704,-0.4704,-0.4705,-0.4705,-0.4705,-0.4777,-0.4765,-0.4759,-0.4747,-0.4742,-0.4735,-0.4724,-0.4722,-0.4711,-0.4699,-0.4703,-0.4687,-0.4681,-0.4668,-0.4664,-0.4651,-0.4659,-0.4652,-0.465,-0.4648,-0.4645,-0.4695,-0.465,-0.465,-0.465,-0.465,-0.465,0,-0.4734,-0.473,-0.4719,-0.4708,-0.4698,-0.4706,-0.4698,-0.4689,-0.4675,-0.4668,-0.4658,-0.4642,-0.4629,-0.4627,-0.4615,-0.4605,-0.4608,-0.4601,-0.4602,-0.46,-0.464,-0.4645,-0.4599,-0.4599,-0.4599,-0.4599,-0.4599,-0.4599,-0.4711,-0.4691,-0.4691,-0.4668,-0.4665,-0.4649,-0.4643,-0.4636,-0.4631,-0.4612,-0.4601,-0.4599,-0.4594,-0.4581,-0.4569,-0.4569,-0.4564,-0.4555,-0.4556,-0.4593,-0.4598,-0.4603,-0.4607,-0.4554,-0.4554,-0.4518,-0.4517,-0.4517]}]]